Skip Page Navigation
NASA JPL Caltech
NASA Logo - Jet Propulsion Laboratory + View the NASA Portal
+ Center for Near-Earth Object Studies
JPL Home Earth Solar System Stars & Galaxies Technology
JPL Solar System Dynamics
BODIES ORBITS EPHEMERIDES TOOLS PHYSICAL DATA DISCOVERY FAQ SITE MAP
JPL Small-Body Database Browser
Search: [ help ]  
47756 (2000 DO96)
Classification: Main-belt Asteroid          SPK-ID: 2047756
Ephemeris | Orbit Diagram | Orbital Elements | Mission Design | Physical Parameters | Discovery Circumstances | Close-Approach Data ]

[ show orbit diagram ]
Orbital Elements at Epoch 2459000.5 (2020-May-31.0) TDB
Reference: JPL 24 (heliocentric ecliptic J2000)
 Element Value Uncertainty (1-sigma)   Units 
e .03081604070464156 3.4734e-08  
a 2.677703397875241 1.1949e-08 au
q 2.595187180971361 9.7512e-08 au
i 3.912054303475457 3.9412e-06 deg
node 323.3635428001247 6.0637e-05 deg
peri 135.9974086921547 9.4008e-05 deg
M 265.5427850417079 7.2055e-05 deg
tp 2459420.427935693865
(2021-Jul-24.92793569)
0.00032068 TDB
period 1600.450075905189
4.38
1.0713e-05
2.933e-08
d
yr
n .2249367258746823 1.5057e-09 deg/d
Q 2.760219614779122 1.2317e-08 au
  Orbit Determination Parameters
   # obs. used (total)      1119  
   data-arc span      9005 days (24.65 yr)  
   first obs. used      1996-03-23  
   last obs. used      2020-11-17  
   planetary ephem.      DE431  
   SB-pert. ephem.      SB431-N16  
   condition code      0  
   norm. resid. RMS      .51642  
   source      ORB  
   producer      Otto Matic  
   solution date      2020-Dec-17 21:25:05  

Additional Information
 Earth MOID = 1.61377 au 
 Jupiter MOID = 2.27707 au 
 T_jup = 3.374 
[ show covariance matrix ]

Ephemeris | Orbit Diagram | Orbital Elements | Mission Design | Physical Parameters | Discovery Circumstances | Close-Approach Data ]

Physical Parameter Table
Parameter Symbol Value Units Sigma Reference Notes
absolute magnitude H 15.0   n/a MPO436117  

47756 (2000 DO96)          Discovered 2000-Feb-29 by LINEAR at Socorro
Reference: 20020921/Numbers.arcLast Updated: 2004-04-19

[ show close-approach data ]
Alternate Designations
 2000 DO96 = 1998 UE35 
Ephemeris | Orbit Diagram | Orbital Elements | Mission Design | Physical Parameters | Discovery Circumstances | Close-Approach Data ]
ABOUT SSD CREDITS/AWARDS PRIVACY/COPYRIGHT GLOSSARY LINKS
FirstGov 2021-Jan-22 04:52 UT
(server date/time)  
NASA Home Page
Site Manager:   Ryan S. Park
Webmaster  Alan B. Chamberlin